When you browse on this site, cookies collect data to enhance your experience and personalize the content and advertising you see.
Visit our Privacy Policy to learn more. By continuing to use the site, you agree to this use of cookies and data.
  • In United Kingdom
  • List of Countries
  • For 7 days
  • Water Temperature
  • Satellite Maps
  • Weather Map
  • Weather Widgets
  • user-avatar
    Login

    Hourly Weather Pajsandu

    Today, 26 March, Tuesday

    Time Temperature Precipitation Wind Pressure Humidity
    00:00 +13°C° 0 mm 3 mps 764 mmHg 81%
    01:00 +12°C° 0 mm 3 mps 764 mmHg 86%
    02:00 +12°C° 0 mm 3 mps 764 mmHg 91%
    03:00 +13°C° 0 mm 2 mps 764 mmHg 93%
    04:00 +13°C° 0 mm 2 mps 764 mmHg 94%
    05:00 +12°C° 0 mm 2 mps 764 mmHg 96%
    06:00 +14°C° 0 mm 2 mps 765 mmHg 91%
    07:00 +14°C° 0 mm 3 mps 765 mmHg 87%
    08:00 +17°C° 0 mm 3 mps 765 mmHg 82%
    09:00 +19°C° 0 mm 3 mps 765 mmHg 73%
    10:00 +20°C° 0 mm 3 mps 765 mmHg 65%
    11:00 +22°C° 0 mm 4 mps 765 mmHg 56%
    12:00 +24°C° 0 mm 3 mps 765 mmHg 55%
    13:00 +24°C° 0 mm 3 mps 765 mmHg 54%
    14:00 +24°C° 0 mm 2 mps 765 mmHg 53%
    15:00 +24°C° 0 mm 2 mps 764 mmHg 56%
    16:00 +23°C° 0 mm 2 mps 764 mmHg 59%
    17:00 +23°C° 0 mm 2 mps 764 mmHg 62%
    18:00 +20°C° 0 mm 2 mps 765 mmHg 65%
    19:00 +19°C° 0 mm 2 mps 765 mmHg 68%
    20:00 +17°C° 0 mm 2 mps 766 mmHg 71%
    21:00 +16°C° 0 mm 2 mps 766 mmHg 76%
    22:00 +16°C° 0 mm 3 mps 766 mmHg 80%
    23:00 +14°C° 0 mm 3 mps 767 mmHg 85%

    Tomorrow, 27 March, Wednesday

    Time Temperature Precipitation Wind Pressure Humidity
    00:00 +14°C° 0 mm 3 mps 767 mmHg 88%
    01:00 +14°C° 0 mm 3 mps 767 mmHg 91%
    02:00 +14°C° 0 mm 3 mps 767 mmHg 94%
    03:00 +14°C° 0 mm 3 mps 767 mmHg 95%
    04:00 +13°C° 0 mm 3 mps 767 mmHg 95%
    05:00 +13°C° 0 mm 3 mps 767 mmHg 96%
    06:00 +14°C° 0 mm 3 mps 768 mmHg 92%
    07:00 +15°C° 0 mm 4 mps 768 mmHg 88%
    08:00 +18°C° 0 mm 4 mps 768 mmHg 84%
    09:00 +20°C° 0 mm 5 mps 768 mmHg 78%
    10:00 +21°C° 0 mm 5 mps 768 mmHg 71%
    11:00 +23°C° 0 mm 5 mps 768 mmHg 64%
    12:00 +25°C° 0 mm 5 mps 767 mmHg 61%
    13:00 +26°C° 0 mm 5 mps 767 mmHg 58%
    14:00 +26°C° 0 mm 5 mps 766 mmHg 56%
    15:00 +26°C° 0 mm 4 mps 766 mmHg 59%
    16:00 +25°C° 0 mm 4 mps 766 mmHg 62%
    17:00 +25°C° 0 mm 3 mps 766 mmHg 65%
    18:00 +22°C° 0 mm 3 mps 766 mmHg 69%
    19:00 +20°C° 0 mm 3 mps 766 mmHg 73%
    20:00 +19°C° 0 mm 3 mps 767 mmHg 78%
    21:00 +18°C° 0 mm 3 mps 767 mmHg 80%
    22:00 +18°C° 0 mm 3 mps 767 mmHg 82%
    23:00 +17°C° 0 mm 4 mps 768 mmHg 84%

    Day after tomorrow, 28 March, Thursday

    Time Temperature Precipitation Wind Pressure Humidity
    00:00 +17°C° 0 mm 4 mps 767 mmHg 86%
    01:00 +15°C° 0 mm 4 mps 767 mmHg 88%
    02:00 +15°C° 0 mm 4 mps 767 mmHg 90%
    03:00 +14°C° 0 mm 4 mps 767 mmHg 91%
    04:00 +14°C° 0 mm 3 mps 767 mmHg 93%
    05:00 +14°C° 0 mm 3 mps 767 mmHg 95%
    06:00 +15°C° 0 mm 4 mps 767 mmHg 89%
    07:00 +17°C° 0 mm 4 mps 767 mmHg 84%
    08:00 +17°C° 0 mm 5 mps 768 mmHg 79%
    09:00 +21°C° 0 mm 5 mps 767 mmHg 71%
    10:00 +23°C° 0 mm 4 mps 767 mmHg 64%
    11:00 +26°C° 0 mm 4 mps 767 mmHg 57%
    12:00 +27°C° 0 mm 4 mps 766 mmHg 55%
    13:00 +28°C° 0 mm 4 mps 766 mmHg 54%
    14:00 +29°C° 0 mm 4 mps 765 mmHg 52%
    15:00 +28°C° 0 mm 3 mps 765 mmHg 57%
    16:00 +27°C° 0 mm 3 mps 764 mmHg 61%
    17:00 +26°C° 0 mm 2 mps 764 mmHg 66%
    18:00 +26°C° 0 mm 3 mps 764 mmHg 66%
    19:00 +25°C° 0 mm 4 mps 764 mmHg 66%
    20:00 +25°C° 0 mm 4 mps 764 mmHg 66%
    21:00 +23°C° 0.2 mm 5 mps 764 mmHg 72%
    22:00 +22°C° 0.2 mm 5 mps 764 mmHg 77%
    23:00 +21°C° 0.2 mm 5 mps 765 mmHg 82%

    29 March, Friday

    Time Temperature Precipitation Wind Pressure Humidity
    00:00 +21°C° 0.1 mm 5 mps 764 mmHg 84%
    01:00 +21°C° 0.1 mm 4 mps 764 mmHg 86%
    02:00 +20°C° 0.1 mm 4 mps 764 mmHg 89%
    03:00 +20°C° 0 mm 4 mps 764 mmHg 89%
    04:00 +20°C° 0 mm 4 mps 763 mmHg 90%
    05:00 +19°C° 0 mm 3 mps 763 mmHg 90%
    06:00 +20°C° 0 mm 4 mps 763 mmHg 88%
    07:00 +20°C° 0 mm 4 mps 764 mmHg 85%
    08:00 +21°C° 0 mm 4 mps 764 mmHg 83%
    09:00 +23°C° 0 mm 5 mps 763 mmHg 77%
    10:00 +25°C° 0 mm 5 mps 763 mmHg 71%
    11:00 +27°C° 0 mm 5 mps 763 mmHg 66%
    12:00 +28°C° 0 mm 4 mps 762 mmHg 62%
    13:00 +30°C° 0 mm 4 mps 761 mmHg 58%
    14:00 +32°C° 0 mm 4 mps 760 mmHg 55%
    15:00 +30°C° 0 mm 3 mps 759 mmHg 58%
    16:00 +30°C° 0 mm 3 mps 759 mmHg 61%
    17:00 +29°C° 0 mm 3 mps 758 mmHg 64%
    18:00 +28°C° 0 mm 3 mps 758 mmHg 68%
    19:00 +26°C° 0 mm 3 mps 759 mmHg 71%
    20:00 +25°C° 0 mm 4 mps 759 mmHg 75%
    21:00 +24°C° 0.6 mm 3 mps 759 mmHg 79%
    22:00 +24°C° 0.6 mm 3 mps 758 mmHg 83%
    23:00 +22°C° 0.6 mm 3 mps 758 mmHg 86%

    30 March, Saturday

    Time Temperature Precipitation Wind Pressure Humidity
    00:00 +22°C° 2.9 mm 3 mps 758 mmHg 89%
    01:00 +23°C° 2.9 mm 2 mps 758 mmHg 92%
    02:00 +23°C° 2.9 mm 2 mps 757 mmHg 94%
    03:00 +22°C° 3.6 mm 3 mps 757 mmHg 95%
    04:00 +22°C° 3.6 mm 3 mps 757 mmHg 95%
    05:00 +22°C° 3.6 mm 4 mps 758 mmHg 95%
    06:00 +22°C° 1.2 mm 4 mps 758 mmHg 94%
    07:00 +22°C° 1.2 mm 4 mps 758 mmHg 93%
    08:00 +22°C° 1.2 mm 5 mps 758 mmHg 92%
    09:00 +23°C° 0.9 mm 5 mps 758 mmHg 91%
    10:00 +23°C° 0.9 mm 5 mps 758 mmHg 89%
    11:00 +25°C° 0.9 mm 5 mps 758 mmHg 88%
    12:00 +25°C° 2.4 mm 5 mps 758 mmHg 89%
    13:00 +23°C° 2.4 mm 4 mps 757 mmHg 91%
    14:00 +23°C° 2.4 mm 4 mps 757 mmHg 92%
    15:00 +23°C° 1.2 mm 4 mps 756 mmHg 93%
    16:00 +23°C° 1.2 mm 4 mps 756 mmHg 93%
    17:00 +23°C° 1.2 mm 4 mps 756 mmHg 93%
    18:00 +22°C° 0 mm 3 mps 756 mmHg 94%
    19:00 +22°C° 0 mm 3 mps 756 mmHg 95%
    20:00 +21°C° 0 mm 3 mps 756 mmHg 97%
    21:00 +21°C° 0 mm 3 mps 756 mmHg 97%
    22:00 +21°C° 0 mm 2 mps 756 mmHg 97%
    23:00 +20°C° 0 mm 2 mps 756 mmHg 98%

    31 March, Sunday

    Time Temperature Precipitation Wind Pressure Humidity
    00:00 +20°C° 0 mm 2 mps 756 mmHg 98%
    01:00 +20°C° 0 mm 2 mps 756 mmHg 98%
    02:00 +20°C° 0 mm 2 mps 755 mmHg 98%
    03:00 +20°C° 0 mm 2 mps 755 mmHg 98%
    04:00 +20°C° 0 mm 2 mps 755 mmHg 98%
    05:00 +21°C° 0 mm 1 mps 755 mmHg 98%
    06:00 +21°C° 0 mm 2 mps 755 mmHg 96%
    07:00 +23°C° 0 mm 2 mps 755 mmHg 95%
    08:00 +24°C° 0 mm 2 mps 755 mmHg 93%
    09:00 +24°C° 0 mm 3 mps 755 mmHg 91%
    10:00 +25°C° 0 mm 3 mps 755 mmHg 88%
    11:00 +26°C° 0 mm 3 mps 755 mmHg 85%
    12:00 +27°C° 0.1 mm 4 mps 754 mmHg 75%
    13:00 +28°C° 0.1 mm 5 mps 754 mmHg 65%
    14:00 +29°C° 0.1 mm 5 mps 753 mmHg 55%
    15:00 +27°C° 0 mm 5 mps 754 mmHg 58%
    16:00 +26°C° 0 mm 4 mps 754 mmHg 60%
    17:00 +25°C° 0 mm 3 mps 754 mmHg 63%
    18:00 +22°C° 0 mm 3 mps 754 mmHg 63%
    19:00 +20°C° 0 mm 3 mps 755 mmHg 64%
    20:00 +19°C° 0 mm 3 mps 756 mmHg 65%
    21:00 +18°C° 0 mm 2 mps 756 mmHg 65%
    22:00 +17°C° 0 mm 2 mps 756 mmHg 66%
    23:00 +16°C° 0 mm 1 mps 756 mmHg 66%
    Show more